Regional Weather Roundup
Issued by NWS

Home | Current Version | Previous Version | Graphics & Text | Print | Product List | Glossary On
Versions: 1 2 3 4 5 6 7 8 9 10 11 12 13 14 15 16 17 18 19 20 21 22 23 24 25 26 27 28 29 30 31 32 33 34 35 36 37 38 39 40 41 42 43 44 45 46 47 48 49 50
888
ASUS45 KBOU 191807
RWRCO

WEATHER ROUNDUP FOR COLORADO
NATIONAL WEATHER SERVICE DENVER/BOULDER CO
1100 AM MST SUN FEB 19 2017

NOTE: "FAIR" INDICATES FEW OR NO CLOUDS BELOW 12000 FEET WITH NO
SIGNIFICANT WEATHER AND/OR OBSTRUCTIONS TO VISIBILITY.

COZ001>005-013-030-031-191900-
...NORTHWEST COLORADO...

CITY           SKY/WX    TMP DP  RH WIND       PRES   REMARKS
CRAIG          FAIR      41  31  67 W3        29.72F
HAYDEN         PTSUNNY   36  25  64 SE7       29.73R
MEEKER         CLOUDY    41  31  67 CALM      29.72S
MOUNT WERNER   NOT AVBL
STEAMBOAT SPGS NOT AVBL
WALDEN         NOT AVBL
$$

COZ006>008-011-191900-
...WEST CENTRAL VALLEYS...

CITY           SKY/WX    TMP DP  RH WIND       PRES   REMARKS
GRAND JUNCTION CLOUDY    47  38  71 W6        29.72F
MONTROSE       CLOUDY    45  34  65 CALM      29.75F
EAGLE          PTSUNNY   39  28  65 CALM      29.77F
RIFLE          PTSUNNY   43  33  68 W6        29.73S
DELTA          PTSUNNY   47  37  66 CALM      29.74F
NUCLA          DRIZZLE   39  34  81 SW7       29.85R
$$

COZ017>023-064>068-191900-
...SOUTHWEST COLORADO...

CITY           SKY/WX    TMP DP  RH WIND       PRES   REMARKS
DURANGO        LGT RAIN  36  36 100 SW6       29.86R
CORTEZ         CLOUDY    38  37  97 MISG      29.86R
PAGOSA SPRINGS LGT SNOW  35  35  99 S3        29.87R VSB 1
TELLURIDE      LGT SNOW  33  30  88 CALM      29.82S
WOLF CREEK PAS SNOW      19  19 100 S23G31    29.90S VSB<1/4 WCI   2
$$

COZ009-010-012-014-032>034-037-058>063-191900-
...CENTRAL COLORADO...

CITY           SKY/WX    TMP DP  RH WIND       PRES   REMARKS
ASPEN          PTSUNNY   44  28  53 N7        29.71F
BUENA VISTA    NOT AVBL
COPPER MTN     NOT AVBL
BERTHOUD PASS  FAIR      28  18  64 S26G44    29.88S WCI  13
COTTONWOOD PAS CLOUDY    39  23  52 E10G21    29.81F
GUNNISON       PTSUNNY   37  24  59 VRB3      29.75F
KREMMLING      PTSUNNY   41  30  65 CALM      29.79F
LEADVILLE      CLOUDY    33  22  63 S15       29.78F WCI  23
MONARCH PASS   CLOUDY    28  21  74 S12G26    29.95F WCI  18
SALIDA         FAIR      51  24  34 S24G35    29.79F
SUNLIGHT       NOT AVBL
WILKERSON PASS FAIR      36  19  51 S8        29.89F
$$

COZ069>075-191900-
...SAN LUIS VALLEY/SANGRE DE CRISTO MOUNTAINS...

CITY           SKY/WX    TMP DP  RH WIND       PRES   REMARKS
ALAMOSA        PTSUNNY   44  29  55 VRB6      29.80S
LA VETA PASS   FAIR      39  23  52 N12G20    29.85F
SAGUACHE       FAIR      45  28  53 S13       29.79F
$$

COZ035-036-038>040-191900-
...NORTHERN COLORADO FRONT RANGE...

CITY           SKY/WX    TMP DP  RH WIND       PRES   REMARKS
DENVER INTL AP PTSUNNY   57  25  29 VRB3      29.67F
DMNS CITY PARK   N/A     57  23  27 N10       29.66F
AURORA         PTSUNNY   59  26  28 NW7       29.67F
FRONT RANGE AP NOT AVBL
ERIE MUNI ARPT FAIR      54  25  31 CALM      29.68F
BOULDER MUN AP FAIR      54  27  35 NE5       29.68F
CENTENNIAL     PTSUNNY   59  19  21 VRB5      29.68F
BROOMFIELD     PTSUNNY   55  25  30 CALM      29.69F
FORT COLLINS   FAIR      52  27  38 VRB3      29.69F
LONGMONT       FAIR      57  26  29 CALM      29.69F
$$

COZ041-046-047-076>085-087-088-191900-
...PIKES PEAK/PALMER DIVIDE AND SOUTHERN FOOTHILLS...

CITY           SKY/WX    TMP DP  RH WIND       PRES   REMARKS
COLO. SPRINGS  PTSUNNY   53  23  31 SE15      29.73F
A. F. ACADEMY  FAIR      54  22  29 S9        29.72F
SCHRIEVER AFB  FAIR      53  23  32 S14G21    29.74F
ELLICOTT       FAIR     N/A N/A N/A S18G25    29.72F
FALCON         NOT AVBL
FORT CARSON    FAIR      54  24  31 SE6       29.72F
LIMON          FAIR      59  29  31 S18G28    29.71F
MONUMENT HILL  FAIR      52  23  32 S15G22    29.75F
TRINIDAD       FAIR      57  29  34 S20       29.74F
$$

COZ042>045-048>051-090-091-191900-
...NORTHEAST COLORADO...

CITY           SKY/WX    TMP DP  RH WIND       PRES   REMARKS
GREELEY ARPT   FAIR      49  27  42 CALM      29.68F
AKRON          FAIR      61  28  28 S9        29.69F
BURLINGTON     FAIR      66  35  31 S28G39    29.71F
WRAY           NOT AVBL
STERLING       FAIR      52  28  40 S3        29.67F
HOLYOKE        FAIR      59  34  38 S9        29.71F
FORT MORGAN    FAIR      53  24  32 CALM      29.68F
$$

COZ086-089-092>099-191900-
...SOUTHEAST COLORADO...

CITY           SKY/WX    TMP DP  RH WIND       PRES   REMARKS
PUEBLO         FAIR      56  28  34 SE10      29.69F
LA JUNTA       FAIR      64  33  31 S12       29.71S
LAMAR          FAIR      61  37  41 S12       29.71F
SPRINGFIELD      N/A     54  40  59 S18G25    29.77S
$$




USA.gov is the U.S. government's official web portal to all federal, state and local government web resources and services.